Regional Weather Roundup
Issued by NWS

Home | Current Version | Previous Version | Text Only | Print | Product List | Glossary Off
Versions: 1 2 3 4 5 6 7 8 9 10 11 12 13 14 15 16 17 18 19 20 21 22 23 24 25 26 27

000
ASUS45 KBOU 201107
RWRCO

WEATHER ROUNDUP FOR COLORADO
NATIONAL WEATHER SERVICE DENVER/BOULDER CO
400 AM MST FRI JAN 20 2017

NOTE: "FAIR" INDICATES FEW OR NO CLOUDS BELOW 12000 FEET WITH NO
SIGNIFICANT WEATHER AND/OR OBSTRUCTIONS TO VISIBILITY.

COZ001>005-013-030-031-201200-
...NORTHWEST COLORADO...

CITY           SKY/WX    TMP DP  RH WIND       PRES   REMARKS
CRAIG          LGT SNOW  27  24  89 SW5       29.56F FOG     WCI  22
HAYDEN         CLOUDY    25  21  86 CALM      29.55F
MEEKER         LGT SNOW  26  24  92 CALM      29.55F FOG
MOUNT WERNER   NOT AVBL
STEAMBOAT SPGS CLOUDY    22  21  96 CALM      29.54F
WALDEN           N/A     23  18  80 S6        29.52F WCI  16
$$

COZ006>008-011-201200-
...WEST CENTRAL VALLEYS...

CITY           SKY/WX    TMP DP  RH WIND       PRES   REMARKS
GRAND JUNCTION LGT SNOW  31  31 100 W5        29.59S VSB 3/4 WCI  26
MONTROSE       CLOUDY    30  30 100 S5        29.61R WCI  25
EAGLE          MIX PCPN  26  25  96 CALM      29.57F FOG
RIFLE          LGT SNOW  29  29 100 CALM      29.57F FOG
DELTA          CLOUDY    34  33  97 SW5       29.59S VSB 1/2 WCI  30
NUCLA          LGT SNOW  32  32 100 MISG      29.64F
$$

COZ017>023-064>068-201200-
...SOUTHWEST COLORADO...

CITY           SKY/WX    TMP DP  RH WIND       PRES   REMARKS
DURANGO        MOCLDY    27  23  85 CALM      29.66S
CORTEZ         FLURRIES  30  26  85 S10G20    29.66F WCI  21
PAGOSA SPRINGS LGT SNOW  27  26  98 W12G22    29.63S VSB 3/4 WCI  16
TELLURIDE      LGT SNOW  24  19  83 CALM      29.60S
WOLF CREEK PAS CLOUDY    12  10  92 S22G40    29.57F WCI  -7
$$

COZ009-010-012-014-032>034-037-058>063-201200-
...CENTRAL COLORADO...

CITY           SKY/WX    TMP DP  RH WIND       PRES   REMARKS
ASPEN          LGT SNOW  24  23  96 CALM      29.52F FOG
BUENA VISTA    CLOUDY    22  19  89 W3        29.53F
COPPER MTN     LGT SNOW  19  14  79 MISG      29.52F
BERTHOUD PASS  NOT AVBL
COTTONWOOD PAS CLOUDY    25  21  86 CALM      29.52F
GUNNISON       FLURRIES  13  11  92 E3        29.60F
KREMMLING      FLURRIES  19  16  86 CALM      29.58F
LEADVILLE      CLOUDY    18  15  88 N5        29.50F WCI  11
MONARCH PASS   HVY SNOW  14  12  92 SW12G24   29.62F VSB 1/4 WCI   0
SALIDA         CLOUDY    29  20  67 CALM      29.60S
SUNLIGHT       LGT SNOW  18  16  93 SW6       29.57F VSB 3/4 WCI   9
WILKERSON PASS LGT SNOW N/A N/A N/A W8        29.52F
$$

COZ069>075-201200-
...SAN LUIS VALLEY/SANGRE DE CRISTO MOUNTAINS...

CITY           SKY/WX    TMP DP  RH WIND       PRES   REMARKS
ALAMOSA        CLOUDY    15  15 100 NW8       29.58F WCI   4
LA VETA PASS   CLOUDY    21  18  86 NE29G48   29.47F FOG     WCI   3
SAGUACHE       CLOUDY    21  21 100 CALM      29.59F
$$

COZ035-036-038>040-201200-
...NORTHERN COLORADO FRONT RANGE...

CITY           SKY/WX    TMP DP  RH WIND       PRES   REMARKS
DENVER INTL AP CLOUDY    32  23  69 S6        29.45F WCI  26
DMNS CITY PARK   N/A     34  23  63 E12       29.45S WCI  26
AURORA         CLOUDY    32  24  71 CALM      29.45F
FRONT RANGE AP CLOUDY    34  27  75 W5        29.46F WCI  30
ERIE MUNI ARPT CLOUDY    31  28  89 CALM      29.46S
BOULDER MUN AP CLOUDY    36  25  64 CALM      29.45F
CENTENNIAL     CLOUDY    35  21  56 W7        29.46S WCI  29
BROOMFIELD     LGT RAIN  41  28  60 NW3       29.46S
FORT COLLINS   FAIR      30  21  69 N3        29.46F
LONGMONT       CLOUDY    35  28  75 CALM      29.48S
$$

COZ041-046-047-076>085-087-088-201200-
...PIKES PEAK/PALMER DIVIDE AND SOUTHERN FOOTHILLS...

CITY           SKY/WX    TMP DP  RH WIND       PRES   REMARKS
COLO. SPRINGS  LGT RAIN  36  30  79 N10       29.46F
A. F. ACADEMY  CLOUDY    37  26  64 NW9       29.45F
SCHRIEVER AFB  NOT AVBL
ELLICOTT       SNOW     N/A N/A N/A N8        29.46R
FALCON         LGT SNOW  33  32  97 NW10      29.48S WCI  24
FORT CARSON    CLOUDY    36  27  69 SW2       29.46F
LIMON          MOCLDY    29  25  85 W6        29.44F WCI  23
MONUMENT HILL  CLOUDY    32  30  93 W15G21    29.48S WCI  22
TRINIDAD       FAIR      35  27  72 E5        29.46F WCI  31
$$

COZ042>045-048>051-090-091-201200-
...NORTHEAST COLORADO...

CITY           SKY/WX    TMP DP  RH WIND       PRES   REMARKS
GREELEY ARPT   MOCLDY    28  26  92 NW3       29.47F
AKRON          FAIR      30  22  72 N8        29.44F WCI  22
BURLINGTON     FAIR      30  28  92 W5        29.44  WCI  25
WRAY           NOT AVBL
STERLING       FAIR      23  21  93 SW3       29.46S
HOLYOKE        FAIR      32  27  80 NW8       29.46F WCI  25
FORT MORGAN    FAIR      28  25  90 W3        29.47S
$$

COZ086-089-092>099-201200-
...SOUTHEAST COLORADO...

CITY           SKY/WX    TMP DP  RH WIND       PRES   REMARKS
PUEBLO         CLOUDY    41  28  60 CALM      29.43F
LA JUNTA       CLOUDY    29  27  92 N5        29.46S FOG     WCI  24
LAMAR          CLOUDY    29  28  96 CALM      29.44F FOG
SPRINGFIELD      N/A     39  35  86 W10       29.45F
$$




USA.gov is the U.S. government's official web portal to all federal, state and local government web resources and services.